{"data":{"norad_id":59200,"epoch":"2026-05-25T00:03:56.480256Z","epoch_age_seconds":74738,"freshness":"FRESH","line1":"1 59200U 24045Y   26145.00273704  .00003338  00000+0  13077-3 0  9999","line2":"2 59200  42.9999  21.4642 0001289 268.6100  91.4604 15.27579376124836","mean_motion":15.27579376,"eccentricity":0.0001289,"inclination_deg":42.9999,"raan_deg":21.4642,"arg_perigee_deg":268.61,"mean_anomaly_deg":91.4604,"bstar":0.00013077,"rev_number":12483,"period_min":94.26678722062,"perigee_km":482.16655739215,"apogee_km":483.9353716494,"semimajor_km":6861.1879645208,"source":"CELESTRAK","updated_at":"2026-05-25T13:38:18.863471Z"}}